Weather History for El Centro, CA

Change the Weather History Date:

Wednesday, May 23, 2012

  Actual Average Record
Temperature  
Mean Temperature 67 °F -  
Max Temperature 102 °F 94 °F 109 °F (2001)
Min Temperature 32 °F 66 °F 32 °F (2012)
Cooling Degree Days 2    
Growing Degree Days 17 (Base 50)    
Moisture  
Dew Point 40 °F    
Average Humidity 23    
Maximum Humidity 100    
Minimum Humidity 9    
Precipitation  
Precipitation 0.00 in - - ()
Sea Level Pressure  
Sea Level Pressure 29.58 in    
Wind  
Wind Speed 17 mph (WSW)    
Max Wind Speed 31 mph    
Max Gust Speed 39 mph    
Visibility 10 miles    
Events      
Averages and records for this station are not official NWS values.
T = Trace of Precipitation, MM = Missing Value Source: NWS Daily Summary

Daily Weather History Graph

Daily Weather History Graph

Search for Another Location

Airport:

Trip Planner

Search our weather history database for the weather conditions in past years. The results will help you decide how hot, cold, wet, or windy it might be!

Date:

Astronomy

May. 23, 2012 Rise Set
Actual Time 5:38 AM PDT 7:40 PM PDT
Civil Twilight 5:10 AM PDT 8:08 PM PDT
Nautical Twilight 4:37 AM PDT 8:42 PM PDT
Astronomical Twilight 4:01 AM PDT 9:18 PM PDT
Moon 7:45 AM PDT (5/23) 10:05 PM PDT (5/23)
Length of Visible Light 14h 57m
Length of Day
14h 02m
Waxing Crescent, 7% of the Moon is Illuminated
May 23
Waxing Crescent
May 28
First Quarter
Jun 4
Full
Jun 11
Last Quarter
Jun 19
New

Hourly Weather History & Observations

Time (PDT) Temp. Dew Point Humidity Pressure Visibility Wind Dir Wind Speed Gust Speed Precip Events Conditions
12:56 AM 86.0 °F 37.9 °F 18% 29.63 in 10.0 mi West 18.4 mph - N/A   Clear
1:56 AM 86.0 °F 37.9 °F 18% 29.62 in 10.0 mi WSW 15.0 mph - N/A   Clear
2:56 AM 80.1 °F 41.0 °F 25% 29.62 in 10.0 mi WSW 10.4 mph - N/A   Clear
3:56 AM 84.9 °F 37.0 °F 18% 29.60 in 10.0 mi West 16.1 mph - N/A   Clear
4:55 AM - - N/A% - - North - - N/A   Unknown
4:56 AM 82.9 °F 37.9 °F 20% 29.60 in 10.0 mi WSW 8.1 mph - N/A   Clear
5:56 AM 82.0 °F 37.9 °F 21% 29.60 in 10.0 mi WSW 10.4 mph - N/A   Clear
6:56 AM 77.0 °F 55.0 °F 47% 29.62 in 10.0 mi SE 6.9 mph - N/A   Clear
7:56 AM 84.0 °F 50.0 °F 31% 29.64 in 10.0 mi Variable 4.6 mph - N/A   Clear
8:56 AM 93.0 °F 39.9 °F 16% 29.64 in 10.0 mi West 15.0 mph - N/A   Partly Cloudy
9:56 AM 95.0 °F 36.0 °F 13% 29.63 in 10.0 mi West 10.4 mph - N/A   Partly Cloudy
10:56 AM 98.1 °F 35.1 °F 11% 29.61 in 10.0 mi WSW 16.1 mph 21.9 mph N/A   Partly Cloudy
11:56 AM 99.0 °F 34.0 °F 10% 29.60 in 10.0 mi WSW 13.8 mph 21.9 mph N/A   Partly Cloudy
12:56 PM 102.0 °F 34.0 °F 9% 29.58 in 10.0 mi WSW 19.6 mph 26.5 mph N/A   Partly Cloudy
1:56 PM 102.9 °F 39.0 °F 11% 29.56 in 10.0 mi WSW 21.9 mph - N/A   Partly Cloudy
2:56 PM 102.0 °F 39.0 °F 11% 29.54 in 10.0 mi WSW 23.0 mph 29.9 mph N/A   Partly Cloudy
3:56 PM 100.0 °F 37.9 °F 12% 29.52 in 10.0 mi WSW 26.5 mph 33.4 mph N/A   Partly Cloudy
4:56 PM 99.0 °F 39.9 °F 13% 29.52 in 10.0 mi SW 24.2 mph 32.2 mph N/A   Partly Cloudy
5:56 PM 95.0 °F 41.0 °F 15% 29.52 in 10.0 mi WSW 28.8 mph 35.7 mph N/A   Partly Cloudy
6:55 PM 32.0 °F 32.0 °F 100% - - North - - N/A   Unknown
6:56 PM 90.0 °F 43.0 °F 19% 29.52 in 10.0 mi WSW 25.3 mph 31.1 mph N/A   Clear
7:56 PM 86.0 °F 44.1 °F 23% 29.52 in 10.0 mi WSW 27.6 mph 34.5 mph N/A   Clear
8:56 PM 82.9 °F 43.0 °F 24% 29.54 in 10.0 mi WSW 21.9 mph 32.2 mph N/A   Clear
9:56 PM 81.0 °F 45.0 °F 28% 29.56 in 10.0 mi WSW 31.1 mph 38.0 mph N/A   Clear
10:56 PM 80.1 °F 42.1 °F 26% 29.56 in 10.0 mi WSW 28.8 mph 39.1 mph N/A   Clear
11:56 PM 80.1 °F 39.9 °F 24% 29.56 in 10.0 mi WSW 21.9 mph - N/A   Clear